Flag for Brazil Weather past 2 weeks in Juiz de Fora, Minas Gerais, Brazil

Now
64 °F

Clear.


Feels Like: 64 °F
Forecast: 52 / 80 °F
Wind: 3 mph from Northeast

Location: Galeao

Current Time: Aug 4, 2015 at 7:43:19 AM

Latest Report: Aug 4, 2015 at 7:00 AM


Visibility: 4 mi

Pressure: 30.07 "Hg (27.71 "Hg at 697m altitude)

Humidity: 88%

Dew point: 61 °F

Location of Juiz de ForaLocation

Historic Weather in Juiz de Fora — Graph

°F

Juiz de Fora temperature yesterday

Maximum temperature yesterday: 88 °F (at 12:00 PM)
Minimum temperature yesterday: 64 °F (at 5:00 AM)
Average temperature yesterday: 75 °F

Past Weeks' High & Low Weather Summary

 TemperatureHumidityPressure
High88 °F (Jul 20, 3:00 PM)94% (Jul 22, 6:00 AM)30.30 "Hg (Jul 22, 6:00 AM)
Low63 °F (Jul 24, 5:00 AM)29% (Aug 3, 3:00 PM)29.92 "Hg (Jul 21, 4:00 AM)
Average72 °F76%30.10 "Hg
* Reported Jul 20 6:00 AM — Aug 4 6:00 AM, Juiz de Fora, Weather by CustomWeather, © 2015

Note: Actual official high and low records may vary slightly from our data, if they occured in-between our weather recording intervals... More about our weather records

Advertising

Juiz de Fora weather history for previous 24 hours

 ConditionsComfort  
Time TempWeatherWind HumidityBarometerVisibility
6:00 AM
Tue, Aug 4
64 °FSunny.5 mph88%30.04 "Hg10 mi
5:00 AM64 °FClear.6 mph88%30.04 "Hg10 mi
4:00 AM64 °FClear.2 mph88%30.04 "Hg10 mi
3:00 AM64 °FClear.2 mph88%30.04 "Hg10 mi
2:00 AM66 °FClear.2 mph83%30.07 "Hg10 mi
1:00 AM68 °FClear.5 mph73%30.07 "Hg10 mi
12:00 AM68 °FClear.7 mph73%30.07 "Hg10 mi
11:00 PM
Mon, Aug 3
70 °FClear.6 mph73%30.07 "Hg10 mi
10:00 PM72 °FClear.5 mph73%30.07 "Hg10 mi
9:00 PM72 °FClear.1 mph73%30.07 "Hg10 mi
8:00 PM73 °FClear.3 mph74%30.04 "Hg10 mi
7:00 PM77 °FClear.2 mph61%30.04 "Hg10 mi
6:00 PM79 °FClear.9 mph48%30.04 "Hg10 mi
5:00 PM82 °FClear.6 mph45%30.01 "Hg10 mi
4:00 PM88 °FSunny.8 mph29%30.01 "Hg10 mi
3:00 PM88 °FSunny.13 mph29%30.01 "Hg10 mi
2:00 PM88 °FSunny.6 mph35%30.01 "Hg10 mi
1:00 PM88 °FSunny.7 mph33%30.04 "Hg10 mi
12:00 PM88 °FSunny.7 mph31%30.04 "Hg10 mi
11:00 AM84 °FSunny.5 mph40%30.07 "Hg10 mi
10:00 AM79 °FSunny.5 mph58%30.07 "Hg10 mi
9:00 AM75 °FClear.3 mph69%30.07 "Hg6 mi
8:00 AM70 °FClear.No wind83%30.04 "Hg5 mi
7:00 AM64 °FClear.2 mph88%30.04 "Hg5 mi
Weather by CustomWeather, © 2015

See weather overviewHow to use our weather pages